Home   Weather   Kirkland Lake   Past weeks

Flag for Canada Past Weather in Kirkland Lake, Ontario, Canada — Yesterday and Last 2 Weeks

Now
52 °F

Mostly cloudy.


Feels Like: 46 °F
Forecast: 47 / 52 °F
Wind: 17 mph from Southeast

Location: Earlton

Current Time: Sep 26, 2016 at 1:29:49 PM

Latest Report: Sep 26, 2016 at 1:00 PM


Visibility: 9 mi

Pressure: 29.80 "Hg

Humidity: 88%

Dew Point: 48 °F

Location of Kirkland LakeLocation

Past Weather in Kirkland Lake — Graph

°F

Kirkland Lake Temperature Yesterday

Maximum temperature yesterday: 61 °F (at 3:00 PM)
Minimum temperature yesterday: 30 °F (at 6:00 AM)
Average temperature yesterday: 46 °F

High & Low Weather Summary for the Past Weeks

 TemperatureHumidityPressure
High75 °F (Sep 12, 2:00 PM)100% (Sep 13, 7:00 PM)30.37 "Hg (Sep 13, 7:00 PM)
Low30 °F (Sep 25, 6:00 AM)35% (Sep 20, 6:00 PM)29.75 "Hg (Sep 17, 11:00 PM)
Average56 °F82%30.08 "Hg
* Reported Sep 11 12:00 PM — Sep 26 12:00 PM, Kirkland Lake, Weather by CustomWeather, © 2016

Note: Actual official high and low records may vary slightly from our data, if they occured in-between our weather recording intervals... More about our weather records

Advertising

Kirkland Lake Weather History for the Previous 24 Hours

Scroll right to see more
 ConditionsComfort  
Time TempWeatherWind HumidityBarometerVisibility
12:00 PM
Mon, Sep 26
50 °FLight rain. Overcast.13 mph88%29.84 "Hg9 mi
11:00 AM52 °FLight rain. Mostly cloudy.17 mph82%29.85 "Hg9 mi
10:49 AM52 °FLight rain. Overcast.14 mph82%29.85 "Hg9 mi
10:02 AM50 °FMore clouds than sun.16 mph88%29.85 "Hg9 mi
9:00 AM48 °FLight rain. Mostly cloudy.15 mph94%29.88 "Hg9 mi
8:00 AM48 °FLight rain. Overcast.15 mph87%29.91 "Hg9 mi
7:00 AM50 °FLight rain. Overcast.12 mph76%29.95 "Hg9 mi
6:00 AM50 °FMostly cloudy.12 mph76%29.96 "Hg9 mi
5:00 AM48 °FLight rain. Overcast.8 mph87%29.98 "Hg9 mi
4:00 AM48 °FOvercast.7 mph87%30.00 "Hg9 mi
3:00 AM46 °FOvercast.7 mph87%30.03 "Hg9 mi
2:00 AM46 °FPassing clouds.7 mph82%30.04 "Hg9 mi
1:00 AM46 °FMostly cloudy.8 mph87%30.07 "Hg9 mi
12:00 AM46 °FOvercast.8 mph87%30.10 "Hg9 mi
11:00 PM
Sun, Sep 25
46 °FPassing clouds.7 mph82%30.11 "Hg9 mi
10:00 PM46 °FPassing clouds.7 mph87%30.13 "Hg9 mi
9:00 PM50 °FClear.8 mph76%30.14 "Hg9 mi
8:00 PM50 °FClear.7 mph76%30.15 "Hg9 mi
7:00 PM54 °FSunny.7 mph67%30.15 "Hg9 mi
6:04 PM59 °FSunny.9 mph51%30.16 "Hg4 mi
5:57 PM59 °FSunny.8 mph51%30.16 "Hg2 mi
5:00 PM61 °FSunny.9 mph45%30.16 "Hg9 mi
4:00 PM61 °FSunny.9 mph48%30.18 "Hg9 mi
3:00 PM61 °FSunny.3 mph42%30.20 "Hg9 mi
2:00 PM59 °FSunny.7 mph45%30.23 "Hg9 mi
1:00 PM57 °FSunny.9 mph55%30.26 "Hg9 mi
Weather by CustomWeather, © 2016

See weather overviewHow to use our weather pages